Olympia, WA

5:08 AM PDT on August 20, 2017 (GMT -0700)
Olympia

Weather History for KOLM - March, 2013

Change the Weather History Date:

Thursday, March 14, 2013

  Actual Average Record
Temperature  
Mean Temperature 50 °F 44 °F  
Max Temperature 52 °F 54 °F 67 °F (2005)
Min Temperature 48 °F 35 °F 25 °F (1953)
Degree Days  
Heating Degree Days 15 21  
Month to date heating degree days 284 303  
Since 1 July heating degree days 3971 4025  
Cooling Degree Days 0 0  
Month to date cooling degree days 0 0  
Year to date cooling degree days 0 0  
Moisture  
Dew Point 48 °F    
Average Humidity 86    
Maximum Humidity 100    
Minimum Humidity 71    
Precipitation  
Precipitation 0.06 in 0.18 in 1.29 in (2015)
Month to date precipitation 1.81 2.50  
Year to date precipitation 9.76 15.61  
Sea Level Pressure  
Sea Level Pressure 30.09 in    
Wind  
Wind Speed 5 mph (SSW)    
Max Wind Speed 14 mph    
Max Gust Speed 18 mph    
Visibility 5 miles    
Events Fog , Rain    
T = Trace of Precipitation, MM = Missing Value Source: NWS Daily Summary

Daily Weather History Graph

Daily Weather History Graph

Search for Another Location

Airport or City:

Trip Planner

Search our weather history database for the weather conditions in past years. The results will help you decide how hot, cold, wet, or windy it might be!

Date:

Astronomy

Mar. 14, 2013 Rise Set
Actual Time 7:25 AM PDT 7:16 PM PDT
Civil Twilight 6:55 AM PDT 7:46 PM PDT
Nautical Twilight 6:20 AM PDT 8:22 PM PDT
Astronomical Twilight 5:44 AM PDT 8:58 PM PDT
Moon 8:29 AM PDT (3/14) 10:54 PM PDT (3/14)
Length of Visible Light 12h 51m
Length of Day
11h 50m
Waxing Crescent, 9% of the Moon is Illuminated
Mar 14
Waxing Crescent
Mar 19
First Quarter
Mar 27
Full
Apr 2
Last Quarter
Apr 10
New

Hourly Weather History & Observations

Time (PDT) Temp. Dew Point Humidity Pressure Visibility Wind Dir Wind Speed Gust Speed Precip Events Conditions
12:54 AM 50.0 °F 48.9 °F 96% 30.10 in 7.0 mi Calm Calm - N/A   Overcast
1:54 AM 48.9 °F 48.9 °F 100% 30.09 in 2.0 mi SSE 4.6 mph - N/A   Overcast
1:57 AM 48.9 °F 48.9 °F 100% 30.09 in 1.2 mi South 3.5 mph - N/A   Overcast
2:10 AM 48.9 °F 48.9 °F 100% 30.09 in 0.8 mi South 4.6 mph - N/A   Overcast
2:29 AM 48.9 °F 48.9 °F 100% 30.10 in 0.5 mi SW 5.8 mph - N/A Fog Fog
2:54 AM 48.9 °F 48.9 °F 100% 30.09 in 0.5 mi South 5.8 mph - N/A Fog Fog
3:22 AM 48.9 °F 48.9 °F 100% 30.07 in 1.0 mi SE 5.8 mph - N/A   Overcast
3:54 AM 48.9 °F 48.0 °F 97% 30.07 in 0.8 mi Calm Calm - N/A   Mist
4:03 AM 48.9 °F 48.9 °F 100% 30.07 in 1.0 mi Calm Calm - N/A   Mist
4:21 AM 48.9 °F 48.9 °F 100% 30.06 in 0.8 mi Calm Calm - N/A   Mist
4:31 AM 48.9 °F 48.9 °F 100% 30.05 in 1.0 mi Calm Calm - N/A   Overcast
4:54 AM 48.9 °F 48.9 °F 100% 30.07 in 1.0 mi WSW 3.5 mph - N/A   Overcast
5:06 AM 48.9 °F 48.9 °F 100% 30.06 in 1.5 mi Calm Calm - N/A   Overcast
5:14 AM 48.9 °F 48.9 °F 100% 30.06 in 0.8 mi Calm Calm - N/A   Mist
5:44 AM 48.9 °F 48.9 °F 100% 30.05 in 1.5 mi Calm Calm - N/A   Overcast
5:54 AM 48.9 °F 48.0 °F 97% 30.06 in 2.0 mi SSW 3.5 mph - N/A   Overcast
6:03 AM 48.9 °F 48.0 °F 97% 30.06 in 1.2 mi SSW 3.5 mph - N/A   Overcast
6:12 AM 48.9 °F 48.9 °F 100% 30.06 in 0.5 mi SW 3.5 mph - N/A Fog Fog
6:24 AM 48.9 °F 48.9 °F 100% 30.06 in 1.5 mi Calm Calm - N/A   Overcast
6:36 AM 48.9 °F 48.0 °F 97% 30.07 in 2.5 mi SW 3.5 mph - N/A   Overcast
6:54 AM 48.9 °F 48.9 °F 100% 30.05 in 1.0 mi Calm Calm - N/A   Overcast
7:07 AM 48.9 °F 48.9 °F 100% 30.06 in 2.0 mi Calm Calm - N/A   Overcast
7:16 AM 48.9 °F 48.0 °F 97% 30.06 in 4.0 mi Calm Calm - N/A   Overcast
7:29 AM 48.9 °F 48.0 °F 97% 30.07 in 5.0 mi Calm Calm - N/A   Overcast
7:54 AM 48.9 °F 48.0 °F 97% 30.08 in 4.0 mi Calm Calm - N/A   Overcast
8:54 AM 48.9 °F 48.0 °F 97% 30.09 in 7.0 mi SW 3.5 mph - N/A   Overcast
9:54 AM 48.9 °F 46.9 °F 93% 30.10 in 10.0 mi WSW 3.5 mph - N/A   Overcast
10:38 AM 50.0 °F 46.9 °F 89% 30.09 in 10.0 mi SSW 4.6 mph - N/A   Overcast
10:54 AM 51.1 °F 46.9 °F 86% 30.09 in 10.0 mi SSW 6.9 mph - N/A   Overcast
11:54 AM 50.0 °F 46.9 °F 89% 30.09 in 10.0 mi SSW 6.9 mph - N/A   Overcast
12:54 PM 51.1 °F 48.0 °F 89% 30.08 in 9.0 mi SSW 3.5 mph - 0.00 in Rain Light Rain
1:54 PM 51.1 °F 46.9 °F 86% 30.10 in 10.0 mi WSW 6.9 mph - 0.00 in   Overcast
2:54 PM 51.1 °F 45.0 °F 80% 30.09 in 10.0 mi WSW 5.8 mph - N/A   Overcast
3:54 PM 51.1 °F 44.1 °F 77% 30.10 in 10.0 mi SW 6.9 mph - N/A   Overcast
4:54 PM 52.0 °F 43.0 °F 71% 30.10 in 10.0 mi WSW 10.4 mph - N/A   Overcast
5:54 PM 51.1 °F 44.1 °F 77% 30.11 in 10.0 mi WSW 8.1 mph - 0.00 in   Overcast
6:54 PM 48.9 °F 46.9 °F 93% 30.10 in 8.0 mi SE 5.8 mph - 0.02 in Rain Light Rain
7:54 PM 48.0 °F 46.9 °F 96% 30.11 in 9.0 mi Calm Calm - 0.01 in Rain Light Rain
8:04 PM 48.0 °F 46.0 °F 93% 30.11 in 9.0 mi Calm Calm - 0.00 in   Overcast
8:13 PM 48.0 °F 46.9 °F 96% 30.11 in 7.0 mi WSW 3.5 mph - 0.00 in Rain Light Rain
8:20 PM 48.0 °F 46.9 °F 96% 30.11 in 6.0 mi Calm Calm - 0.00 in Rain Light Rain
8:54 PM 48.0 °F 46.9 °F 96% 30.12 in 3.0 mi SW 5.8 mph - 0.02 in Rain Light Rain
9:54 PM 48.9 °F 46.0 °F 90% 30.13 in 6.0 mi SSW 8.1 mph - 0.01 in   Overcast
10:54 PM 48.9 °F 46.9 °F 93% 30.15 in 8.0 mi SSW 10.4 mph - N/A   Overcast
11:54 PM 48.9 °F 46.9 °F 93% 30.17 in 9.0 mi SSW 10.4 mph - N/A   Overcast